Weather observations for the past three days for
South Bend International Airport
Metric (Imperial)
Date Time (edt) Wind (kph) Vis. (km) Weather Sky Cond. Temperature (ºC) Relative Humidity Wind Chill (°C) Heat Index (°C) Pressure Precipitation (cm)
Air Dwpt 6 hour altimeter (cm) sea level (mb) 1 hr 3 hr 6 hr
Max. Min.
21 12:54 S 26 G 43 16.09 Partly Cloudy SCT047 28.3 18.3 55% 29 75.82 1010.3
21 11:54 S 22 G 37 16.09 Fair CLR 27.8 18.3 56% 29 75.84 1010.5
21 10:54 SW 15 16.09 Fair CLR 26.1 18.9 65% 27 75.84 1010.7
21 09:54 SE 9 16.09 Fair CLR 23.9 18.9 74% 25 75.9 1011.2
21 08:54 Vrbl 7 9.66 Fair with Haze CLR 20.6 17.8 84% 75.9 1011.5
21 07:54 E 6 8.05 Fog/Mist CLR 18.9 17.2 18.9 15.6 90% 75.92 1011.9
21 06:54 Calm 6.44 Fog/Mist CLR 16.7 15.6 93% 75.9 1011.5
21 05:54 Calm 9.66 Fog/Mist CLR 16.7 15.6 93% 75.92 1011.5
21 04:54 E 6 9.66 Fog/Mist CLR 16.1 15 93% 75.87 1011.1
21 03:54 Calm 9.66 Fog/Mist CLR 16.7 15.6 93% 75.9 1011.3
21 02:54 N 6 14.48 Fair CLR 16.7 15.6 93% 75.95 1011.9
21 01:54 N 7 16.09 Fair CLR 18.3 16.7 20.6 18.3 90% 75.95 1011.8 0.18
21 00:54 NW 7 16.09 A Few Clouds FEW060 19.4 17.8 91% 75.95 1011.9
20 23:54 SW 11 16.09 Mostly Cloudy BKN060 BKN080 20 17.8 87% 75.95 1011.9
20 22:54 S 11 16.09 Mostly Cloudy BKN065 20.6 17.8 84% 75.95 1011.9 0.18
20 21:54 SW 7 16.09 Overcast BKN055 BKN065 OVC085 20.6 18.3 87% 75.9 1011.3
20 20:54 S 15 16.09 Thunderstorm BKN060 20.6 17.8 84% 75.9 1011.3 0.18
20 19:54 S 11 16.09 Thunderstorm in Vicinity Light Rain FEW044 SCT090 BKN110 19.4 16.7 30.6 18.9 84% 75.84 1010.8 0.94 0.94
20 18:54 W 17 G 46 16.09 Thunderstorm BKN070 26.1 13.9 47% 27 75.79 1009.8
20 17:54 S 35 G 52 16.09 Fair and Breezy CLR 29.4 14.4 40% 29 75.77 1009.5
20 16:54 S 24 G 37 16.09 Light Rain CLR 30.6 14.4 37% 30 75.79 1009.9
20 15:54 SW 26 G 39 16.09 A Few Clouds FEW065 28.9 15 43% 29 75.87 1011.1
20 14:54 SW 26 G 44 16.09 A Few Clouds FEW065 FEW080 29.4 15 42% 29 75.9 1011.4
20 13:54 S 31 G 43 16.09 Fair CLR 31.1 16.1 31.1 20 40% 31 75.92 1011.4
20 12:54 S 28 G 41 16.09 A Few Clouds FEW060 29.4 16.1 45% 30 75.97 1012.4
20 11:54 S 22 G 33 16.09 Fair CLR 28.9 18.3 53% 30 76.02 1012.8
20 10:54 SW 19 16.09 Fair CLR 27.8 18.3 56% 29 76.07 1013.5
20 09:54 SW 15 16.09 Fair CLR 25.6 17.2 60% 27 76.1 1013.9
20 08:54 S 15 16.09 A Few Clouds FEW060 23.3 15 60% 76.07 1013.9
20 06:54 E 6 16.09 Fair CLR 16.7 10.6 67% 76.07 1013.8
20 05:54 Calm 16.09 Fair CLR 15 10.6 75% 76.05 1013.4
20 04:54 E 6 16.09 Fair CLR 15.6 10 70% 76.05 1013.5
20 03:54 N 7 16.09 Fair CLR 14.4 10.6 78% 76.07 1013.7
20 02:54 NW 9 16.09 Fair CLR 14.4 10 75% 76.1 1014.2
20 01:54 Calm 16.09 Fair CLR 16.7 8.9 22.2 14.4 60% 76.1 1014.0
20 00:54 N 9 16.09 Fair CLR 14.4 10.6 78% 76.12 1014.7
19 23:54 E 6 16.09 Fair CLR 17.8 7.8 52% 76.15 1014.8
19 22:54 Calm 16.09 Fair CLR 18.3 7.2 49% 76.23 1015.6
19 21:54 NW 6 16.09 Fair CLR 16.1 8.9 63% 76.2 1015.5
19 20:54 N 9 16.09 Fair CLR 19.4 7.8 47% 76.15 1014.8
19 19:54 N 19 16.09 Fair CLR 22.2 10 28.3 22.2 46% 76.12 1014.4
19 18:54 N 19 16.09 Fair CLR 24.4 12.2 47% 26 76.12 1014.4
19 17:54 N 26 16.09 Fair CLR 25 13.9 50% 26 76.17 1015.0
19 16:54 NW 13 16.09 Fair CLR 27.8 15 46% 28 76.12 1014.3
19 15:54 NW 9 16.09 Fair CLR 27.8 15.6 47% 28 76.15 1014.6
19 14:54 NW 15 16.09 Fair CLR 27.2 17.2 54% 28 76.15 1014.5
19 13:54 W 11 16.09 Fair CLR 26.7 16.7 27.2 20.6 54% 27 76.15 1014.6
19 12:54 NW 13 16.09 Fair CLR 26.1 17.2 58% 27 76.2 1015.2
19 11:54 W 13 16.09 Fair CLR 25.6 16.7 58% 26 76.2 1015.3
19 10:54 NW 13 16.09 A Few Clouds FEW090 24.4 16.7 62% 25 76.23 1015.5
19 09:54 NW 15 16.09 Fair CLR 23.9 16.7 64% 25 76.17 1015.0
19 08:54 W 11 16.09 Fair CLR 22.2 16.7 71% 76.17 1014.8
19 07:54 W 11 16.09 Overcast BKN055 OVC075 20.6 16.1 20.6 18.9 76% 76.12 1014.2
19 06:54 SW 13 16.09 Partly Cloudy SCT070 19.4 15.6 79% 76.07 1013.5
19 05:54 SW 11 16.09 Fair CLR 18.9 15.6 81% 76.05 1013.2
19 04:54 SW 13 16.09 Fair CLR 19.4 15.6 79% 76.02 1013.0
19 03:54 SW 11 16.09 Fair CLR 19.4 15.6 79% 76 1012.7
19 02:54 SW 9 16.09 Fair CLR 20 15.6 76% 76 1012.7
19 01:54 SW 7 16.09 Fair CLR 20 15.6 26.7 19.4 76% 76 1012.6
18 23:54 S 7 16.09 Fair CLR 21.7 15.6 68% 75.97 1012.3
18 22:54 S 11 16.09 Fair CLR 22.2 16.1 68% 75.95 1011.9
18 21:54 S 6 14.48 Fair CLR 23.3 16.1 64% 75.9 1011.4
18 20:54 S 7 16.09 Fair CLR 25.6 15.6 54% 26 75.87 1011.0
18 19:54 S 13 16.09 Fair CLR 26.7 15.6 29.4 26.7 51% 27 75.87 1010.9
18 18:54 SW 15 16.09 A Few Clouds FEW060 27.8 15 46% 28 75.87 1010.9
18 17:54 SW 11 16.09 A Few Clouds FEW070 27.2 15.6 49% 28 75.87 1011.0
18 16:54 S 11 16.09 Mostly Cloudy FEW060 BKN100 27.8 15.6 47% 28 75.87 1011.1
18 15:54 SW 7 16.09 Overcast BKN065 BKN080 OVC100 27.8 15 46% 28 75.9 1011.3
18 14:54 Vrbl 9 16.09 Mostly Cloudy SCT060 BKN075 27.2 14.4 45% 27 75.9 1011.3
18 13:54 Vrbl 6 16.09 A Few Clouds FEW050 27.8 13.9 27.8 17.8 43% 28 75.92 1011.5
Date Time (edt) Wind (kph) Vis. (km) Weather Sky Cond. Air Dwpt Max. Min. Relative Humidity Wind Chill (°C) Heat Index (°C) altimeter (cm) sea level (mb) 1 hr 3 hr 6 hr
6 hour
Temperature (ºC) Pressure Precipitation (cm)